Alpha Afovos — SZSJ — position and weather

sailwx.info

Track history (hours):
 
Tides and Currents Weather Stations Pressure Air Temp Water Temp Dewpoint Dewpoint Depression Visibility Wind Speed Wind Dir Waves Ship Positions

Alpha Afovos

Last reported at 2014-Sep-01 09:23 UTC. Time now 2014-Sep-01 13:41 UTC.
Position N 32°14' E 119°54'.

Length 223 m; draft 10.4 m.

Type: Cargo ship. MMSI: 239802000.

Date/timePositionNaut miles runAvg speedWind from/ knotsBaromVisibWave heightAir tempDewpointWater temp
2014-Sep-01 09:23N 32°14' E 119°54'0 0.0
2014-Sep-01 08:26N 32°14' E 119°54'5 5.4
2014-Sep-01 07:27N 32°08' E 119°55'8 9.5
2014-Sep-01 06:34N 32°00' E 119°58'9 8.5
2014-Sep-01 05:30N 31°56' E 120°08'7 7.7
2014-Sep-01 04:33N 31°57' E 120°17'9 8.9
2014-Sep-01 03:33N 31°59' E 120°27'7 6.3
2014-Sep-01 02:30N 32°01' E 120°34'1010.2
2014-Sep-01 01:33N 32°01' E 120°46'10 9.7
2014-Sep-01 00:33N 31°53' E 120°53'9 8.8
2014-Aug-31 23:33N 31°47' E 120°60'1110.3
2014-Aug-31 22:30N 31°41' E 121°11'1010.4
2014-Aug-31 21:33N 31°35' E 121°20'0 0.2
2014-Aug-31 20:21N 31°35' E 121°20'0 0.0
2014-Aug-31 19:21N 31°35' E 121°20'0 0.0
2014-Aug-31 18:33N 31°35' E 121°20'0 0.2
2014-Aug-31 17:27N 31°35' E 121°20'0 0.0
2014-Aug-31 16:21N 31°35' E 121°20'0 0.1
2014-Aug-31 15:15N 31°35' E 121°20'0 0.0
2014-Aug-31 14:21N 31°35' E 121°20'0 0.0
2014-Aug-31 13:21N 31°35' E 121°20'0 0.0
2014-Aug-31 11:24N 31°35' E 121°20'0 0.2
2014-Aug-31 10:14N 31°35' E 121°20'4 5.5
2014-Aug-31 09:31N 31°32' E 121°22'1010.3
2014-Aug-31 08:33N 31°25' E 121°31'8 7.9
2014-Aug-31 07:33N 31°21' E 121°39'1410.3
2014-Aug-31 06:13N 31°16' E 121°54'2512.1
2014-Aug-31 04:07N 31°06' E 122°21'1013.2
2014-Aug-31 03:21N 31°07' E 122°33'65 2.5
2014-Aug-30 01:08N 30°54' E 123°47'98 7.8
2014-Aug-29 12:31N 29°38' E 122°36'9 9.0
2014-Aug-29 11:32N 29°42' E 122°26'1010.0
2014-Aug-29 10:33N 29°47' E 122°16'1111.5
2014-Aug-29 09:33N 29°55' E 122°08'10 9.6
2014-Aug-29 08:33N 30°01' E 121°59'1 0.5
2014-Aug-29 07:31N 30°02' E 121°59'0 0.0
2014-Aug-29 06:31N 30°02' E 121°59'0 0.0
2014-Aug-29 05:31N 30°02' E 121°59'0 0.0
2014-Aug-29 04:31N 30°02' E 121°59'0 0.0
2014-Aug-29 03:31N 30°02' E 121°59'0 0.0
2014-Aug-29 02:31N 30°02' E 121°59'0 0.0
2014-Aug-29 01:31N 30°02' E 121°59'0 0.0
2014-Aug-29 00:31N 30°02' E 121°59'0 0.0
2014-Aug-28 23:31N 30°02' E 121°59'0 0.0
2014-Aug-28 22:31N 30°02' E 121°59'0 0.0
2014-Aug-28 21:25N 30°02' E 121°59'0 0.0
2014-Aug-28 20:31N 30°02' E 121°59'0 0.0
2014-Aug-28 19:31N 30°02' E 121°59'0 0.0
2014-Aug-28 18:25N 30°02' E 121°59'0 0.0
2014-Aug-28 17:31N 30°02' E 121°59'0 0.0
2014-Aug-28 16:31N 30°02' E 121°59'0 0.0
2014-Aug-28 15:31N 30°02' E 121°59'0 0.0
2014-Aug-28 14:31N 30°02' E 121°59'0 0.0
2014-Aug-28 13:31N 30°02' E 121°59'0 0.0
2014-Aug-28 12:31N 30°02' E 121°59'0 0.0
2014-Aug-28 11:31N 30°02' E 121°59'0 0.0
2014-Aug-28 10:31N 30°02' E 121°59'0 0.0
2014-Aug-28 09:31N 30°02' E 121°59'0 0.0
2014-Aug-28 08:31N 30°02' E 121°59'0 0.0
2014-Aug-28 07:31N 30°02' E 121°59'0 0.0
2014-Aug-28 06:31N 30°02' E 121°59'0 0.0
2014-Aug-28 05:31N 30°02' E 121°59'2 1.7
2014-Aug-28 04:33N 30°00' E 121°58'8 8.2
2014-Aug-28 03:33N 29°56' E 122°06'1110.7
2014-Aug-28 02:33N 29°48' E 122°15'7 6.9
2014-Aug-28 01:34N 29°45' E 122°22'5 4.8
2014-Aug-28 00:31N 29°44' E 122°28'0 0.1
2014-Aug-27 23:31N 29°44' E 122°27'0 0.2
2014-Aug-27 22:25N 29°44' E 122°28'0 0.1
2014-Aug-27 21:31N 29°44' E 122°28'0 0.1
2014-Aug-27 20:31N 29°44' E 122°28'0 0.0
2014-Aug-27 19:31N 29°44' E 122°28'0 0.2
2014-Aug-27 18:31N 29°44' E 122°28'0 0.1
2014-Aug-27 17:31N 29°44' E 122°28'0 0.1
2014-Aug-27 16:25N 29°44' E 122°28'0 0.1
2014-Aug-27 15:31N 29°44' E 122°28'0 0.1
2014-Aug-27 14:31N 29°44' E 122°28'0 0.1
2014-Aug-27 13:31N 29°44' E 122°27'0 0.1
2014-Aug-27 12:31N 29°44' E 122°27'0 0.1
2014-Aug-27 11:25N 29°44' E 122°27'0 0.2
2014-Aug-27 10:31N 29°44' E 122°28'1 0.8
2014-Aug-27 09:33N 29°43' E 122°27'7 6.5
2014-Aug-27 08:33N 29°39' E 122°33'  
Track history (hours):
 
Tides and Currents Weather Stations Pressure Air Temp Water Temp Dewpoint Dewpoint Depression Visibility Wind Speed Wind Dir Waves Ship Positions

Alpha Afovos

Last reported at 2014-Sep-01 09:23 UTC. Time now 2014-Sep-01 13:41 UTC.
Position N 32°14' E 119°54'.

Length 223 m; draft 10.4 m.

Type: Cargo ship. MMSI: 239802000.

Date/timePositionNaut miles runAvg speedWind from/ knotsBaromVisibWave heightAir tempDewpointWater temp
2014-Sep-01 09:23N 32°14' E 119°54'0 0.0
2014-Sep-01 08:26N 32°14' E 119°54'5 5.4
2014-Sep-01 07:27N 32°08' E 119°55'8 9.5
2014-Sep-01 06:34N 32°00' E 119°58'9 8.5
2014-Sep-01 05:30N 31°56' E 120°08'7 7.7
2014-Sep-01 04:33N 31°57' E 120°17'9 8.9
2014-Sep-01 03:33N 31°59' E 120°27'7 6.3
2014-Sep-01 02:30N 32°01' E 120°34'1010.2
2014-Sep-01 01:33N 32°01' E 120°46'10 9.7
2014-Sep-01 00:33N 31°53' E 120°53'9 8.8
2014-Aug-31 23:33N 31°47' E 120°60'1110.3
2014-Aug-31 22:30N 31°41' E 121°11'1010.4
2014-Aug-31 21:33N 31°35' E 121°20'0 0.2
2014-Aug-31 20:21N 31°35' E 121°20'0 0.0
2014-Aug-31 19:21N 31°35' E 121°20'0 0.0
2014-Aug-31 18:33N 31°35' E 121°20'0 0.2
2014-Aug-31 17:27N 31°35' E 121°20'0 0.0
2014-Aug-31 16:21N 31°35' E 121°20'0 0.1
2014-Aug-31 15:15N 31°35' E 121°20'0 0.0
2014-Aug-31 14:21N 31°35' E 121°20'0 0.0
2014-Aug-31 13:21N 31°35' E 121°20'0 0.0
2014-Aug-31 11:24N 31°35' E 121°20'0 0.2
2014-Aug-31 10:14N 31°35' E 121°20'4 5.5
2014-Aug-31 09:31N 31°32' E 121°22'1010.3
2014-Aug-31 08:33N 31°25' E 121°31'8 7.9
2014-Aug-31 07:33N 31°21' E 121°39'1410.3
2014-Aug-31 06:13N 31°16' E 121°54'2512.1
2014-Aug-31 04:07N 31°06' E 122°21'1013.2
2014-Aug-31 03:21N 31°07' E 122°33'65 2.5
2014-Aug-30 01:08N 30°54' E 123°47'98 7.8
2014-Aug-29 12:31N 29°38' E 122°36'9 9.0
2014-Aug-29 11:32N 29°42' E 122°26'1010.0
2014-Aug-29 10:33N 29°47' E 122°16'1111.5
2014-Aug-29 09:33N 29°55' E 122°08'10 9.6
2014-Aug-29 08:33N 30°01' E 121°59'1 0.5
2014-Aug-29 07:31N 30°02' E 121°59'0 0.0
2014-Aug-29 06:31N 30°02' E 121°59'0 0.0
2014-Aug-29 05:31N 30°02' E 121°59'0 0.0
2014-Aug-29 04:31N 30°02' E 121°59'0 0.0
2014-Aug-29 03:31N 30°02' E 121°59'0 0.0
2014-Aug-29 02:31N 30°02' E 121°59'0 0.0
2014-Aug-29 01:31N 30°02' E 121°59'0 0.0
2014-Aug-29 00:31N 30°02' E 121°59'0 0.0
2014-Aug-28 23:31N 30°02' E 121°59'0 0.0
2014-Aug-28 22:31N 30°02' E 121°59'0 0.0
2014-Aug-28 21:25N 30°02' E 121°59'0 0.0
2014-Aug-28 20:31N 30°02' E 121°59'0 0.0
2014-Aug-28 19:31N 30°02' E 121°59'0 0.0
2014-Aug-28 18:25N 30°02' E 121°59'0 0.0
2014-Aug-28 17:31N 30°02' E 121°59'0 0.0
2014-Aug-28 16:31N 30°02' E 121°59'0 0.0
2014-Aug-28 15:31N 30°02' E 121°59'0 0.0
2014-Aug-28 14:31N 30°02' E 121°59'0 0.0
2014-Aug-28 13:31N 30°02' E 121°59'0 0.0
2014-Aug-28 12:31N 30°02' E 121°59'0 0.0
2014-Aug-28 11:31N 30°02' E 121°59'0 0.0
2014-Aug-28 10:31N 30°02' E 121°59'0 0.0
2014-Aug-28 09:31N 30°02' E 121°59'0 0.0
2014-Aug-28 08:31N 30°02' E 121°59'0 0.0
2014-Aug-28 07:31N 30°02' E 121°59'0 0.0
2014-Aug-28 06:31N 30°02' E 121°59'0 0.0
2014-Aug-28 05:31N 30°02' E 121°59'2 1.7
2014-Aug-28 04:33N 30°00' E 121°58'8 8.2
2014-Aug-28 03:33N 29°56' E 122°06'1110.7
2014-Aug-28 02:33N 29°48' E 122°15'7 6.9
2014-Aug-28 01:34N 29°45' E 122°22'5 4.8
2014-Aug-28 00:31N 29°44' E 122°28'0 0.1
2014-Aug-27 23:31N 29°44' E 122°27'0 0.2
2014-Aug-27 22:25N 29°44' E 122°28'0 0.1
2014-Aug-27 21:31N 29°44' E 122°28'0 0.1
2014-Aug-27 20:31N 29°44' E 122°28'0 0.0
2014-Aug-27 19:31N 29°44' E 122°28'0 0.2
2014-Aug-27 18:31N 29°44' E 122°28'0 0.1
2014-Aug-27 17:31N 29°44' E 122°28'0 0.1
2014-Aug-27 16:25N 29°44' E 122°28'0 0.1
2014-Aug-27 15:31N 29°44' E 122°28'0 0.1
2014-Aug-27 14:31N 29°44' E 122°28'0 0.1
2014-Aug-27 13:31N 29°44' E 122°27'0 0.1
2014-Aug-27 12:31N 29°44' E 122°27'0 0.1
2014-Aug-27 11:25N 29°44' E 122°27'0 0.2
2014-Aug-27 10:31N 29°44' E 122°28'1 0.8
2014-Aug-27 09:33N 29°43' E 122°27'7 6.5
2014-Aug-27 08:33N 29°39' E 122°33'  

Dump ship's entire track history